Regional Weather Roundup
Issued by NWS Charleston, SC

Current Version | Previous Version | Graphics & Text | Print | Product List | Glossary On
Versions: 1 2 3 4 5 6 7 8 9 10 11 12 13 14 15 16 17 18 19 20 21 22 23 24 25 26 27 28 29 30 31 32 33 34 35 36 37 38 39 40 41 42 43 44 45 46 47 48 49 50
000
ASUS42 KCHS 241325
RWRCHS

REGIONAL WEATHER ROUNDUP
NATIONAL WEATHER SERVICE CHARLESTON SC
900 AM EDT FRI OCT 24 2014

NOTE: "FAIR" INDICATES FEW OR NO CLOUDS BELOW 12,000 FEET WITH NO
SIGNIFICANT WEATHER AND/OR OBSTRUCTIONS TO VISIBILITY.

NOT ALL STATIONS ARE QUALITY CONTROLLED BY THE NATIONAL
WEATHER SERVICE. USE DATA WITH CAUTION...ESPECIALLY
DEWPOINT OBSERVATIONS.

SCZ027-030-031-034>040-042>050-241400-
...SOUTH CAROLINA...

CITY           SKY/WX    TMP DP  RH WIND       PRES   REMARKS
N CHARLESTON   PTSUNNY   55  47  74 NE6       30.06R
WATERFRONT PRK   N/A     57 N/A N/A N9          N/A
FORT JOHNSON   NOT AVBL
JOHNS ISLAND   MOSUNNY   57  52  82 N9        30.07R
PINOPOLIS      NOT AVBL
MONCKS CORNER  FAIR      57  48  72 CALM      30.07R
SUMMERVILLE    FAIR      50  48  93 CALM      30.08R
BEAUFORT MCAS  MOSUNNY   57  50  77 N6        30.07R
BEAUFORT ARPT  FAIR      57  52  82 N6        30.06R
HILTON HEAD IS PTSUNNY   55  50  82 NW3       30.07R
GEORGETOWN     NOT AVBL
WALTERBORO     PTSUNNY   50 N/A N/A CALM      30.09R
ORANGEBURG     PTSUNNY   50  45  83 CALM      30.08R
BARNWELL       FAIR      48  46  93 CALM      30.09R
AIKEN          FAIR      54  48  82 NE6       30.11R
MANNING        FAIR      54  50  87 CALM      30.08R
KINGSTREE      NOT AVBL
COLUMBIA       PTSUNNY   48  45  89 S3        30.09R
SUMTER         PTSUNNY   52  45  76 N6        30.07R
FLORENCE       PTSUNNY   50  44  80 N7        30.06R
MYRTLE BEACH   SUNNY     54  45  71 N12       30.05R
N MYRTLE BEACH PTSUNNY   52  45  77 VRB6      30.05R

$$

GAZ063-065-086>088-099>101-113>116-118-119-134-136>141-150-241400-
...GEORGIA...

CITY           SKY/WX    TMP DP  RH WIND       PRES   REMARKS
SAVANNAH ARPT  PTSUNNY   56  49  77 N5        30.06R
HUNTER AAF     PTSUNNY   56  50  82 NW3       30.04R
FORT STEWART   PTSUNNY   51  48  89 CALM      30.04R
STATESBORO     NOT AVBL
SYLVANIA       CLOUDY    56  53  91 CALM      30.08S
CLAXTON        FAIR      50  50 100 CALM      30.07R
THOMSON        MOSUNNY   51  51 100 CALM      30.11F
AUGUSTA-BUSH   PTSUNNY   51  47  86 CALM      30.08R
AUGUSTA-DANIEL PTSUNNY   56  44  64 NE5       30.08R
SWAINSBORO     FAIR      54  54 100 MISG      30.08S
VIDALIA        PTSUNNY   55  50  82 CALM      30.07S
ALMA           PTSUNNY   53  49  86 CALM      30.06R
WAYCROSS       PTSUNNY   56  53  89 N3        30.06R
JESUP          FAIR      54  54 100 CALM      30.06R
BRUNSWICK      PTSUNNY   55  50  82 CALM      30.06R
SAINT SIMONS   CLOUDY    55  51  86 NW5       30.04R

$$

SCZ027-028-034-036>038-045-046-048>050-GAZ119-141-241400-
...LAKE AND SUPPLEMENTAL COASTAL OBSERVATIONS...

STATION/POSITION TIME  TEMP    WIND        PRES    WAVE   SWELL
                       AIR SEA DIR/SP/G            HT/PER HT/PER/DIR
                 (UTC) (F)     (DEG/KT/KT) (MB)    (FT/S) (FT/S/D)
UPR LAKE MARION  NOT AVBL
WINYAH BAY       1300   51     340/  3     1017.0S
LAKE MURRAY      1200   51      CALM  /  2 1017.9R
ACE BASIN NERRS  1300   50      20/  1     1017.0S
FORT PULASKI     1300   57     330/  6/  7 1017.9R
SAPELO ISLAND    NOT AVBL

$$

ANZ835-935-AMZ111-154-330-350-352-354-374-450-454-472-241400-
...C-MAN AND BUOY OBSERVATIONS...

STATION/POSITION TIME  TEMP    WIND        PRES    WAVE   SWELL
                       AIR SEA DIR/SP/G            HT/PER HT/PER/DIR
                 (UTC) (F)     (DEG/KT/KT) (MB)    (FT/S) (FT/S/D)
FOLLY BEACH CMAN 1300   57     360/  8/ 10 1018.4R
BUOY 41004       1300   69 78   10/  8/ 12 1016.4R   3/11   2/11
BUOY 41008       1300   67 75  360/ 10/ 14 1016.7S   2/10   2/100/10
5E ST. MARYS GA  1300      76                N/A     2/ 8
FRYING PAN BUOY  1300   65 74   10/  8/ 10 1017.3R   3/11   3/ 90/11
BUOY 41025       1300   62     330/ 17/ 21 1015.0R   4/ 5   2/ 40/ 9
CAPE LOOKOUT NC  1300   58     350/ 11/ 13 1016.5R
BUOY 41002       1216   72 77  300/ 10/ 12 1015.6    5/ 9   5/ 10/ 9
BUOY 41010       1300   73 81   30/ 12/ 14 1015.3R   3/ 9   3/ 40/ 9
BUOY 41012       NOT AVBL
ST AUGUSTINE FL  1300   67      40/  9/ 11 1017.0R
CAPERS NEARSHORE NOT AVBL
FRIPP NEARSHORE  NOT AVBL


$$



USA.gov is the U.S. government's official web portal to all federal, state and local government web resources and services.